,,,PA_Meas_PMT16A,,PR_Meas_QMR101_102,,RH_Meas_QMH101,,SR_Meas_QMS101,,TA_Meas_QMH101,,GenWind,,GenWind,
date,time,status,PA,status,PR,status,RH,status,SR,status,TA,status,DirAvg,status,SpdAvg,
2009-11-04, 00:00:05,VALID,1000.7,VALID,0,VALID,91.6851,VALID,0,VALID,22.8427,VALID,30,VALID,0.575781,
2009-11-04, 00:01:05,VALID,1000.71,VALID,0,VALID,91.6623,VALID,0,VALID,22.8623,VALID,26,VALID,0.701172,
2009-11-04, 00:02:05,VALID,1000.68,VALID,0,VALID,91.5707,VALID,0,VALID,22.8427,VALID,26,VALID,0.814453,
2009-11-04, 00:03:05,VALID,1000.67,VALID,0,VALID,91.4868,VALID,0,VALID,22.8427,VALID,25,VALID,0.732031,
2009-11-04, 00:04:05,VALID,1000.68,VALID,0,VALID,91.1587,VALID,0,VALID,22.825,VALID,17,VALID,0.789063,
2009-11-04, 00:05:05,VALID,1000.66,VALID,0,VALID,91.1434,VALID,0,VALID,22.8055,VALID,15,VALID,1.01016,
2009-11-04, 00:06:05,VALID,1000.65,VALID,0,VALID,90.8688,VALID,0,VALID,22.7452,VALID,15,VALID,0.776563,
2009-11-04, 00:07:05,VALID,1000.64,VALID,0,VALID,91.1358,VALID,0,VALID,22.6867,VALID,15,VALID,0.653906,
2009-11-04, 00:08:05,VALID,1000.63,VALID,0,VALID,91.1206,VALID,0,VALID,22.6477,VALID,15,VALID,0.55625,
2009-11-04, 00:09:05,VALID,1000.65,VALID,0,VALID,91.0214,VALID,0,VALID,22.5892,VALID,15,VALID,0.388672,
2009-11-04, 00:10:05,VALID,1000.62,VALID,0,VALID,91.0519,VALID,0,VALID,22.5519,VALID,15,VALID,0.165234,
2009-11-04, 00:11:05,VALID,1000.64,VALID,0,VALID,91.3952,VALID,0,VALID,22.5128,VALID,15,VALID,0.255078,
2009-11-04, 00:12:05,VALID,1000.6,VALID,0,VALID,91.6241,VALID,0,VALID,22.5111,VALID,15,VALID,0.276172,
2009-11-04, 00:13:05,VALID,1000.58,VALID,0,VALID,91.8225,VALID,0,VALID,22.5306,VALID,15,VALID,0.248047,
2009-11-04, 00:14:05,VALID,1000.59,VALID,0,VALID,91.9827,VALID,0,VALID,22.5501,VALID,15,VALID,0,
2009-11-04, 00:15:05,VALID,1000.57,VALID,0,VALID,92.12,VALID,0,VALID,22.5696,VALID,15,VALID,0,
2009-11-04, 00:16:05,VALID,1000.55,VALID,0,VALID,92.1811,VALID,0,VALID,22.5892,VALID,15,VALID,0,
2009-11-04, 00:17:05,VALID,1000.53,VALID,0,VALID,92.2192,VALID,0,VALID,22.6087,VALID,15,VALID,0,
2009-11-04, 00:18:05,VALID,1000.54,VALID,0,VALID,92.3642,VALID,0,VALID,22.6494,VALID,31,VALID,0,
2009-11-04, 00:19:05,VALID,1000.51,VALID,0,VALID,92.0285,VALID,0,VALID,22.6299,VALID,39,VALID,0,
2009-11-04, 00:20:05,VALID,1000.49,VALID,0,VALID,92.0514,VALID,0,VALID,22.6104,VALID,39,VALID,0,
2009-11-04, 00:21:05,VALID,1000.46,VALID,0,VALID,92.0361,VALID,0,VALID,22.5892,VALID,39,VALID,0,
2009-11-04, 00:22:05,VALID,1000.48,VALID,0,VALID,92.1658,VALID,0,VALID,22.6299,VALID,39,VALID,0,
2009-11-04, 00:23:05,VALID,1000.49,VALID,0,VALID,91.998,VALID,0,VALID,22.5892,VALID,39,VALID,0,
2009-11-04, 00:24:05,VALID,1000.48,VALID,0,VALID,91.9293,VALID,0,VALID,22.6104,VALID,39,VALID,0,
2009-11-04, 00:25:05,VALID,1000.47,VALID,0,VALID,92.0666,VALID,0,VALID,22.5892,VALID,39,VALID,0,
2009-11-04, 00:26:05,VALID,1000.45,VALID,0,VALID,92.1582,VALID,0,VALID,22.6087,VALID,39,VALID,0,
2009-11-04, 00:27:05,VALID,1000.45,VALID,0,VALID,92.2497,VALID,0,VALID,22.6494,VALID,39,VALID,0,
2009-11-04, 00:28:05,VALID,1000.49,VALID,0,VALID,92.1963,VALID,0,VALID,22.6477,VALID,39,VALID,0,
2009-11-04, 00:29:05,VALID,1000.45,VALID,0,VALID,91.8606,VALID,0,VALID,22.6299,VALID,25,VALID,0,
2009-11-04, 00:30:05,VALID,1000.41,VALID,0,VALID,91.9064,VALID,0,VALID,22.6104,VALID,24,VALID,0,
2009-11-04, 00:31:05,VALID,1000.41,VALID,0,VALID,92.0743,VALID,0,VALID,22.6087,VALID,24,VALID,0,
2009-11-04, 00:32:05,VALID,1000.4,VALID,0,VALID,92.0743,VALID,0,VALID,22.6087,VALID,24,VALID,0,
2009-11-04, 00:33:05,VALID,1000.4,VALID,0,VALID,92.2192,VALID,0,VALID,22.6282,VALID,24,VALID,0,
2009-11-04, 00:34:05,VALID,1000.39,VALID,0,VALID,92.0514,VALID,0,VALID,22.6104,VALID,24,VALID,0,
2009-11-04, 00:35:05,VALID,1000.39,VALID,0,VALID,91.9598,VALID,0,VALID,22.5519,VALID,24,VALID,0,
2009-11-04, 00:36:05,VALID,1000.37,VALID,0,VALID,91.7309,VALID,0,VALID,22.4738,VALID,24,VALID,0,
2009-11-04, 00:37:05,VALID,1000.38,VALID,0,VALID,91.8911,VALID,0,VALID,22.3958,VALID,36,VALID,0,
2009-11-04, 00:38:05,VALID,1000.38,VALID,0,VALID,92.204,VALID,0,VALID,22.3941,VALID,38,VALID,0,
2009-11-04, 00:39:05,VALID,1000.33,VALID,0,VALID,91.9827,VALID,0,VALID,22.3958,VALID,38,VALID,0,
2009-11-04, 00:40:05,VALID,1000.29,VALID,0,VALID,92.059,VALID,0,VALID,22.3568,VALID,35,VALID,0,
2009-11-04, 00:41:05,VALID,1000.28,VALID,0,VALID,92.5626,VALID,0,VALID,22.3958,VALID,25,VALID,0.955078,
2009-11-04, 00:42:05,VALID,1000.28,VALID,0,VALID,92.5091,VALID,0,VALID,22.4348,VALID,13,VALID,1.09961,
2009-11-04, 00:43:05,VALID,1000.3,VALID,0,VALID,92.4863,VALID,0,VALID,22.4738,VALID,2,VALID,0.799609,
2009-11-04, 00:44:05,VALID,1000.26,VALID,0,VALID,92.0895,VALID,0,VALID,22.4348,VALID,356,VALID,0.715234,
2009-11-04, 00:45:05,VALID,1000.24,VALID,0,VALID,92.204,VALID,0,VALID,22.4543,VALID,340,VALID,0.604688,
2009-11-04, 00:46:05,VALID,1000.24,VALID,0,VALID,92.4328,VALID,0,VALID,22.4933,VALID,339,VALID,0.5625,
2009-11-04, 00:47:05,VALID,1000.23,VALID,0,VALID,92.1429,VALID,0,VALID,22.4526,VALID,339,VALID,0.511328,
2009-11-04, 00:48:05,VALID,1000.22,VALID,0,VALID,91.8148,VALID,0,VALID,22.3746,VALID,339,VALID,0.560156,
2009-11-04, 00:49:05,VALID,1000.19,VALID,0,VALID,91.998,VALID,0,VALID,22.3568,VALID,339,VALID,0.402734,
2009-11-04, 00:50:05,VALID,1000.2,VALID,0,VALID,91.9445,VALID,0,VALID,22.2983,VALID,339,VALID,0.301953,
2009-11-04, 00:51:05,VALID,1000.18,VALID,0,VALID,92.3337,VALID,0,VALID,22.2966,VALID,339,VALID,0.313281,
2009-11-04, 00:52:05,VALID,1000.15,VALID,0,VALID,92.3642,VALID,0,VALID,22.3178,VALID,339,VALID,0.416406,
2009-11-04, 00:53:05,VALID,1000.14,VALID,0,VALID,92.5473,VALID,0,VALID,22.3161,VALID,339,VALID,0.492188,
2009-11-04, 00:54:05,VALID,1000.11,VALID,0,VALID,92.5854,VALID,0,VALID,22.3568,VALID,339,VALID,0.521094,
2009-11-04, 00:55:05,VALID,1000.12,VALID,0,VALID,92.6999,VALID,0,VALID,22.3568,VALID,339,VALID,0.496094,
2009-11-04, 00:56:05,VALID,1000.11,VALID,0,VALID,92.7151,VALID,0,VALID,22.3551,VALID,339,VALID,0.316406,
2009-11-04, 00:57:05,VALID,1000.1,VALID,0,VALID,92.677,VALID,0,VALID,22.3551,VALID,339,VALID,0.525781,
2009-11-04, 00:58:05,VALID,1000.08,VALID,0,VALID,92.5015,VALID,0,VALID,22.3161,VALID,339,VALID,0.648047,
2009-11-04, 00:59:05,VALID,1000.06,VALID,0,VALID,92.5854,VALID,0,VALID,22.3373,VALID,350,VALID,0.693359,
2009-11-04, 01:00:05,VALID,1000.06,VALID,0,VALID,92.4481,VALID,0,VALID,22.2771,VALID,351,VALID,0.603516,
2009-11-04, 01:01:05,VALID,1000.06,VALID,0,VALID,92.4557,VALID,0,VALID,22.2381,VALID,4,VALID,0.768359,
2009-11-04, 01:02:05,VALID,1000.06,VALID,0,VALID,92.677,VALID,0,VALID,22.2381,VALID,5,VALID,0.714063,
2009-11-04, 01:03:05,VALID,1000.06,VALID,0,VALID,92.4405,VALID,0,VALID,22.2186,VALID,31,VALID,1.05703,
2009-11-04, 01:04:05,VALID,1000.06,VALID,0,VALID,92.8372,VALID,0,VALID,22.2771,VALID,33,VALID,1.15195,
2009-11-04, 01:05:05,VALID,1000.02,VALID,0,VALID,92.7609,VALID,0,VALID,22.3161,VALID,33,VALID,1.01641,
2009-11-04, 01:06:05,VALID,1000.02,VALID,0,VALID,92.3871,VALID,0,VALID,22.3568,VALID,33,VALID,0.842188,
2009-11-04, 01:07:05,VALID,1000.04,VALID,0,VALID,91.9522,VALID,0,VALID,22.2771,VALID,33,VALID,0.758984,
2009-11-04, 01:08:05,VALID,1000.04,VALID,0,VALID,91.9751,VALID,0,VALID,22.2983,VALID,33,VALID,0.5125,
2009-11-04, 01:09:05,VALID,1000.02,VALID,0,VALID,91.5936,VALID,0,VALID,22.199,VALID,33,VALID,0.593359,
2009-11-04, 01:10:05,VALID,1000.01,VALID,0,VALID,91.7004,VALID,0,VALID,22.1795,VALID,35,VALID,0.798437,
2009-11-04, 01:11:05,VALID,1000.02,VALID,0,VALID,91.9522,VALID,0,VALID,22.2186,VALID,35,VALID,0.705078,
2009-11-04, 01:12:05,VALID,1000.01,VALID,0,VALID,91.5707,VALID,0,VALID,22.121,VALID,35,VALID,0.560938,
2009-11-04, 01:13:05,VALID,1000.02,VALID,0,VALID,91.8683,VALID,0,VALID,22.1617,VALID,35,VALID,0.417578,
2009-11-04, 01:14:05,VALID,1000.02,VALID,0,VALID,91.8377,VALID,0,VALID,22.1015,VALID,35,VALID,0.548828,
2009-11-04, 01:15:05,VALID,1000,VALID,0,VALID,91.9598,VALID,0,VALID,22.121,VALID,50,VALID,0.693359,
2009-11-04, 01:16:05,VALID,1000.05,VALID,0,VALID,92.3871,VALID,0,VALID,22.1422,VALID,58,VALID,0.776172,
2009-11-04, 01:17:05,VALID,1000.05,VALID,0,VALID,92.3871,VALID,0,VALID,22.199,VALID,65,VALID,1.00781,
2009-11-04, 01:18:05,VALID,1000.06,VALID,0,VALID,92.1429,VALID,0,VALID,22.1795,VALID,71,VALID,1.13242,
2009-11-04, 01:19:05,VALID,1000.04,VALID,0,VALID,92.1582,VALID,0,VALID,22.199,VALID,72,VALID,1.17734,
2009-11-04, 01:20:05,VALID,1000.06,VALID,0,VALID,91.7767,VALID,0,VALID,22.16,VALID,72,VALID,1.10469,
2009-11-04, 01:21:05,VALID,1000.05,VALID,0,VALID,91.9445,VALID,0,VALID,22.1405,VALID,72,VALID,1.08945,
2009-11-04, 01:22:05,VALID,1000.02,VALID,0,VALID,91.9369,VALID,0,VALID,22.121,VALID,72,VALID,1.01133,
2009-11-04, 01:23:05,VALID,1000.03,VALID,0,VALID,91.9903,VALID,0,VALID,22.121,VALID,72,VALID,0.964063,
2009-11-04, 01:24:05,VALID,1000.03,VALID,0,VALID,91.8606,VALID,0,VALID,22.082,VALID,71,VALID,1.14492,
2009-11-04, 01:25:05,VALID,999.984,VALID,0,VALID,91.6317,VALID,0,VALID,22.043,VALID,61,VALID,1.11172,
2009-11-04, 01:26:05,VALID,999.971,VALID,0,VALID,91.6241,VALID,0,VALID,21.9845,VALID,57,VALID,0.95,
2009-11-04, 01:27:05,VALID,999.98,VALID,0,VALID,91.7233,VALID,0,VALID,21.965,VALID,56,VALID,0.943359,
2009-11-04, 01:28:05,VALID,999.963,VALID,0,VALID,91.708,VALID,0,VALID,21.926,VALID,54,VALID,0.811328,
2009-11-04, 01:29:05,VALID,999.971,VALID,0,VALID,91.7767,VALID,0,VALID,21.887,VALID,38,VALID,0.895312,
2009-11-04, 01:30:05,VALID,999.968,VALID,0,VALID,91.792,VALID,0.112286,VALID,21.848,VALID,34,VALID,0.871094,
2009-11-04, 01:31:05,VALID,999.945,VALID,0,VALID,91.8606,VALID,0,VALID,21.809,VALID,34,VALID,0.851953,
2009-11-04, 01:32:05,VALID,999.957,VALID,0,VALID,92.2421,VALID,0,VALID,21.7895,VALID,34,VALID,0.890625,
2009-11-04, 01:33:05,VALID,999.958,VALID,0,VALID,92.6999,VALID,0.112286,VALID,21.8675,VALID,34,VALID,0.875781,
2009-11-04, 01:34:05,VALID,999.936,VALID,0,VALID,92.6999,VALID,0,VALID,21.887,VALID,34,VALID,0.921094,
2009-11-04, 01:35:05,VALID,999.956,VALID,0,VALID,92.5854,VALID,0,VALID,21.887,VALID,34,VALID,0.862891,
2009-11-04, 01:36:05,VALID,999.973,VALID,0,VALID,92.6007,VALID,0,VALID,21.8675,VALID,34,VALID,0.967188,
2009-11-04, 01:37:05,VALID,999.941,VALID,0,VALID,92.7991,VALID,0,VALID,21.9065,VALID,34,VALID,1.00781,
2009-11-04, 01:38:05,VALID,999.941,VALID,0,VALID,92.8372,VALID,0,VALID,21.9455,VALID,34,VALID,0.826563,
2009-11-04, 01:39:05,VALID,999.938,VALID,0,VALID,92.616,VALID,0,VALID,21.9455,VALID,34,VALID,0.871875,
2009-11-04, 01:40:05,VALID,999.929,VALID,0,VALID,92.6007,VALID,0,VALID,21.926,VALID,34,VALID,0.898047,
2009-11-04, 01:41:05,VALID,999.919,VALID,0,VALID,92.5168,VALID,0,VALID,21.9455,VALID,34,VALID,0.980078,
2009-11-04, 01:42:05,VALID,999.89,VALID,0,VALID,92.5626,VALID,0,VALID,21.926,VALID,34,VALID,0.925,
2009-11-04, 01:43:05,VALID,999.934,VALID,0,VALID,92.6694,VALID,0,VALID,21.9633,VALID,34,VALID,0.958984,
2009-11-04, 01:44:05,VALID,999.884,VALID,0,VALID,92.5702,VALID,0,VALID,22.0023,VALID,34,VALID,1.24844,
2009-11-04, 01:45:05,VALID,999.899,VALID,0,VALID,92.4176,VALID,0.112286,VALID,22.043,VALID,34,VALID,1.32227,
2009-11-04, 01:46:05,VALID,999.91,VALID,0,VALID,92.0285,VALID,0.112286,VALID,22.0235,VALID,34,VALID,1.23633,
2009-11-04, 01:47:05,VALID,999.899,VALID,0,VALID,91.586,VALID,0,VALID,21.965,VALID,34,VALID,1.0457,
2009-11-04, 01:48:05,VALID,999.925,VALID,0,VALID,91.5326,VALID,0,VALID,21.926,VALID,34,VALID,0.935156,
2009-11-04, 01:49:05,VALID,999.922,VALID,0,VALID,91.7614,VALID,0,VALID,21.887,VALID,34,VALID,1.00078,
2009-11-04, 01:50:05,VALID,999.945,VALID,0,VALID,92.2192,VALID,0,VALID,21.9065,VALID,34,VALID,0.930078,
2009-11-04, 01:51:05,VALID,999.911,VALID,0,VALID,92.4252,VALID,0,VALID,21.9845,VALID,34,VALID,0.705078,
2009-11-04, 01:52:05,VALID,999.952,VALID,0,VALID,92.3031,VALID,0,VALID,22.0235,VALID,34,VALID,0.989453,
2009-11-04, 01:53:05,VALID,999.941,VALID,0,VALID,92.0514,VALID,0,VALID,22.0235,VALID,34,VALID,1.08945,
2009-11-04, 01:54:05,VALID,999.935,VALID,0,VALID,91.4868,VALID,0,VALID,21.9845,VALID,34,VALID,1.04766,
2009-11-04, 01:55:05,VALID,999.942,VALID,0,VALID,91.4486,VALID,0,VALID,21.9455,VALID,34,VALID,0.971484,
2009-11-04, 01:56:05,VALID,999.924,VALID,0,VALID,91.3876,VALID,0,VALID,21.887,VALID,40,VALID,0.913281,
2009-11-04, 01:57:05,VALID,999.908,VALID,0,VALID,91.6088,VALID,0,VALID,21.8675,VALID,41,VALID,0.817187,
2009-11-04, 01:58:05,VALID,999.929,VALID,0,VALID,91.4181,VALID,0,VALID,21.8692,VALID,43,VALID,0.737109,
2009-11-04, 01:59:05,VALID,999.935,VALID,0,VALID,91.3571,VALID,0,VALID,21.77,VALID,43,VALID,0.473828,
2009-11-04, 02:00:05,VALID,999.941,VALID,0,VALID,91.3952,VALID,0,VALID,21.731,VALID,43,VALID,0.225391,
2009-11-04, 02:01:05,VALID,999.918,VALID,0,VALID,91.4868,VALID,0,VALID,21.6936,VALID,43,VALID,0.411328,
2009-11-04, 02:02:05,VALID,999.943,VALID,0,VALID,91.6699,VALID,0,VALID,21.6335,VALID,43,VALID,0.53125,
2009-11-04, 02:03:05,VALID,999.937,VALID,0,VALID,91.7309,VALID,0,VALID,21.6335,VALID,43,VALID,0.730469,
2009-11-04, 02:04:05,VALID,999.951,VALID,0,VALID,91.8377,VALID,0,VALID,21.5945,VALID,43,VALID,0.888281,
2009-11-04, 02:05:05,VALID,999.922,VALID,0,VALID,92.0361,VALID,0,VALID,21.575,VALID,43,VALID,0.7125,
2009-11-04, 02:06:05,VALID,999.917,VALID,0,VALID,92.0209,VALID,0,VALID,21.536,VALID,43,VALID,0.661328,
2009-11-04, 02:07:05,VALID,999.898,VALID,0,VALID,92.3566,VALID,0,VALID,21.5555,VALID,43,VALID,0.644141,
2009-11-04, 02:08:05,VALID,999.898,VALID,0,VALID,92.2955,VALID,0,VALID,21.5555,VALID,43,VALID,0.615625,
2009-11-04, 02:09:05,VALID,999.896,VALID,0,VALID,92.1582,VALID,0,VALID,21.536,VALID,43,VALID,0.596875,
2009-11-04, 02:10:05,VALID,999.887,VALID,0,VALID,92.41,VALID,0,VALID,21.5165,VALID,43,VALID,0.638281,
2009-11-04, 02:11:05,VALID,999.886,VALID,0,VALID,92.7533,VALID,0,VALID,21.5945,VALID,43,VALID,0.676172,
2009-11-04, 02:12:05,VALID,999.897,VALID,0,VALID,92.7075,VALID,0,VALID,21.6335,VALID,43,VALID,0.791016,
2009-11-04, 02:13:05,VALID,999.894,VALID,0,VALID,92.738,VALID,0,VALID,21.653,VALID,43,VALID,0.826172,
2009-11-04, 02:14:05,VALID,999.868,VALID,0,VALID,92.9135,VALID,0,VALID,21.7115,VALID,43,VALID,0.828516,
2009-11-04, 02:15:05,VALID,999.865,VALID,0,VALID,92.9135,VALID,0,VALID,21.7895,VALID,43,VALID,0.764453,
2009-11-04, 02:16:04,VALID,999.877,VALID,0,VALID,92.5626,VALID,0,VALID,21.8285,VALID,43,VALID,0.790234,
2009-11-04, 02:17:04,VALID,999.889,VALID,0,VALID,92.3794,VALID,0,VALID,21.809,VALID,43,VALID,0.981641,
2009-11-04, 02:18:04,VALID,999.887,VALID,0,VALID,92.1811,VALID,0,VALID,21.8285,VALID,43,VALID,1.28477,
2009-11-04, 02:19:04,VALID,999.879,VALID,0,VALID,91.6775,VALID,0,VALID,21.77,VALID,44,VALID,1.2457,
2009-11-04, 02:20:04,VALID,999.915,VALID,0,VALID,91.7691,VALID,0,VALID,21.77,VALID,44,VALID,0.988281,
2009-11-04, 02:21:04,VALID,999.916,VALID,0,VALID,91.5173,VALID,0,VALID,21.7115,VALID,44,VALID,0.834375,
2009-11-04, 02:22:04,VALID,999.91,VALID,0,VALID,91.8454,VALID,0,VALID,21.6741,VALID,44,VALID,1.07773,
2009-11-04, 02:23:04,VALID,999.925,VALID,0,VALID,92.2421,VALID,0,VALID,21.6936,VALID,43,VALID,0.780859,
2009-11-04, 02:24:04,VALID,999.872,VALID,0,VALID,92.265,VALID,0,VALID,21.7131,VALID,38,VALID,0.738281,
2009-11-04, 02:25:04,VALID,999.887,VALID,0,VALID,92.41,VALID,0,VALID,21.731,VALID,37,VALID,0.690625,
2009-11-04, 02:26:04,VALID,999.888,VALID,0,VALID,92.3337,VALID,0,VALID,21.7521,VALID,35,VALID,0.972266,
2009-11-04, 02:27:04,VALID,999.88,VALID,0,VALID,92.2955,VALID,0,VALID,21.7521,VALID,34,VALID,1.08555,
2009-11-04, 02:28:04,VALID,999.894,VALID,0,VALID,92.2574,VALID,0,VALID,21.7115,VALID,32,VALID,1.25469,
2009-11-04, 02:29:04,VALID,999.908,VALID,0,VALID,92.12,VALID,0,VALID,21.692,VALID,32,VALID,1.07852,
2009-11-04, 02:30:04,VALID,999.915,VALID,0,VALID,91.708,VALID,0,VALID,21.5945,VALID,32,VALID,1.16094,
2009-11-04, 02:31:04,VALID,999.911,VALID,0,VALID,91.8377,VALID,0,VALID,21.536,VALID,31,VALID,0.988672,
2009-11-04, 02:32:04,VALID,999.873,VALID,0,VALID,91.8911,VALID,0,VALID,21.5181,VALID,31,VALID,0.782812,
2009-11-04, 02:33:04,VALID,999.864,VALID,0,VALID,91.853,VALID,0,VALID,21.4596,VALID,31,VALID,0.565234,
2009-11-04, 02:34:04,VALID,999.889,VALID,0,VALID,91.7843,VALID,0,VALID,21.4011,VALID,31,VALID,0.668359,
2009-11-04, 02:35:04,VALID,999.886,VALID,0,VALID,92.0132,VALID,0,VALID,21.3215,VALID,31,VALID,0.673047,
2009-11-04, 02:36:04,VALID,999.878,VALID,0,VALID,92.2268,VALID,0,VALID,21.3231,VALID,29,VALID,0.852734,
2009-11-04, 02:37:04,VALID,999.879,VALID,0,VALID,92.326,VALID,0,VALID,21.302,VALID,29,VALID,0.787109,
2009-11-04, 02:38:04,VALID,999.869,VALID,0,VALID,92.5015,VALID,0,VALID,21.3036,VALID,28,VALID,0.775,
2009-11-04, 02:39:04,VALID,999.812,VALID,0,VALID,92.5854,VALID,0,VALID,21.302,VALID,19,VALID,0.648047,
2009-11-04, 02:40:04,VALID,999.891,VALID,0,VALID,92.4176,VALID,0,VALID,21.2646,VALID,19,VALID,0,
2009-11-04, 02:41:04,VALID,999.877,VALID,0,VALID,92.8906,VALID,0,VALID,21.3231,VALID,25,VALID,0,
2009-11-04, 02:42:04,VALID,999.862,VALID,0,VALID,92.944,VALID,0,VALID,21.3215,VALID,26,VALID,0,
2009-11-04, 02:43:04,VALID,999.862,VALID,0,VALID,92.8906,VALID,0,VALID,21.341,VALID,39,VALID,0,
2009-11-04, 02:44:04,VALID,999.862,VALID,0,VALID,92.9593,VALID,0,VALID,21.341,VALID,43,VALID,0,
2009-11-04, 02:45:04,VALID,999.84,VALID,0,VALID,92.9517,VALID,0,VALID,21.38,VALID,50,VALID,0,
2009-11-04, 02:46:04,VALID,999.856,VALID,0,VALID,92.8448,VALID,0,VALID,21.4011,VALID,57,VALID,0,
2009-11-04, 02:47:04,VALID,999.838,VALID,0,VALID,93.0127,VALID,0,VALID,21.4401,VALID,77,VALID,0,
2009-11-04, 02:48:04,VALID,999.852,VALID,0,VALID,93.0051,VALID,0,VALID,21.4791,VALID,90,VALID,0,
2009-11-04, 02:49:04,VALID,999.843,VALID,0,VALID,93.0356,VALID,0,VALID,21.497,VALID,92,VALID,0,
2009-11-04, 02:50:04,VALID,999.876,VALID,0,VALID,93.0814,VALID,0,VALID,21.5555,VALID,111,VALID,0.359766,
2009-11-04, 02:51:04,VALID,999.86,VALID,0,VALID,92.9669,VALID,0,VALID,21.6156,VALID,112,VALID,0.8125,
2009-11-04, 02:52:04,VALID,999.877,VALID,0,VALID,92.8983,VALID,0,VALID,21.5945,VALID,112,VALID,0.998438,
2009-11-04, 02:53:04,VALID,999.862,VALID,0,VALID,92.8143,VALID,0,VALID,21.6335,VALID,111,VALID,0.749219,
2009-11-04, 02:54:04,VALID,999.848,VALID,0,VALID,92.7304,VALID,0,VALID,21.653,VALID,111,VALID,0.842969,
2009-11-04, 02:55:04,VALID,999.887,VALID,0,VALID,92.6083,VALID,0,VALID,21.6741,VALID,111,VALID,0.683984,
2009-11-04, 02:56:04,VALID,999.889,VALID,0,VALID,92.6236,VALID,0,VALID,21.6936,VALID,111,VALID,0.579687,
2009-11-04, 02:57:04,VALID,999.873,VALID,0,VALID,92.6236,VALID,0,VALID,21.6936,VALID,111,VALID,0.218359,
2009-11-04, 02:58:04,VALID,999.861,VALID,0,VALID,92.6007,VALID,0,VALID,21.7326,VALID,111,VALID,0.165625,
2009-11-04, 02:59:04,VALID,999.85,VALID,0,VALID,92.5168,VALID,0,VALID,21.7521,VALID,111,VALID,0.0214844,
2009-11-04, 03:00:04,VALID,999.803,VALID,0,VALID,92.3871,VALID,0,VALID,21.7115,VALID,111,VALID,0.0519531,
2009-11-04, 03:01:04,VALID,999.83,VALID,0,VALID,92.2726,VALID,0,VALID,21.7115,VALID,111,VALID,0.00273437,
2009-11-04, 03:02:04,VALID,999.833,VALID,0,VALID,92.2955,VALID,0,VALID,21.692,VALID,111,VALID,0.0605469,
2009-11-04, 03:03:04,VALID,999.875,VALID,0,VALID,92.3184,VALID,0,VALID,21.7131,VALID,111,VALID,0,
2009-11-04, 03:04:04,VALID,999.884,VALID,0,VALID,92.3566,VALID,0,VALID,21.7326,VALID,111,VALID,0.00351562,
2009-11-04, 03:05:04,VALID,999.878,VALID,0,VALID,92.4863,VALID,0,VALID,21.731,VALID,110,VALID,0.298828,
2009-11-04, 03:06:04,VALID,999.936,VALID,0,VALID,92.4786,VALID,0,VALID,21.7716,VALID,110,VALID,0.496094,
2009-11-04, 03:07:04,VALID,999.907,VALID,0,VALID,92.5397,VALID,0,VALID,21.7911,VALID,110,VALID,0.288281,
2009-11-04, 03:08:04,VALID,999.906,VALID,0,VALID,92.5015,VALID,0,VALID,21.809,VALID,110,VALID,0.194141,
2009-11-04, 03:09:04,VALID,999.908,VALID,0,VALID,92.3871,VALID,0,VALID,21.8496,VALID,110,VALID,0,
2009-11-04, 03:10:04,VALID,999.884,VALID,0,VALID,92.265,VALID,0,VALID,21.809,VALID,110,VALID,0,
2009-11-04, 03:11:04,VALID,999.856,VALID,0,VALID,92.2192,VALID,0,VALID,21.8106,VALID,118,VALID,0.354688,
2009-11-04, 03:12:04,VALID,999.831,VALID,0,VALID,92.3947,VALID,0,VALID,21.8692,VALID,117,VALID,0,
2009-11-04, 03:13:04,VALID,999.834,VALID,0,VALID,92.3184,VALID,0,VALID,21.887,VALID,118,VALID,0,
2009-11-04, 03:14:04,VALID,999.855,VALID,0,VALID,92.12,VALID,0,VALID,21.9472,VALID,117,VALID,0,
2009-11-04, 03:15:04,VALID,999.865,VALID,0,VALID,91.6165,VALID,0,VALID,21.9472,VALID,117,VALID,0,
2009-11-04, 03:16:04,VALID,999.875,VALID,0,VALID,91.2503,VALID,0,VALID,21.9082,VALID,117,VALID,0,
2009-11-04, 03:17:04,VALID,999.859,VALID,0,VALID,91.0137,VALID,0,VALID,21.8675,VALID,118,VALID,0,
2009-11-04, 03:18:04,VALID,999.892,VALID,0,VALID,90.884,VALID,0,VALID,21.8692,VALID,117,VALID,0,
2009-11-04, 03:19:04,VALID,999.841,VALID,0,VALID,90.9603,VALID,0,VALID,21.8496,VALID,117,VALID,0,
2009-11-04, 03:20:04,VALID,999.85,VALID,0,VALID,90.9909,VALID,0,VALID,21.8285,VALID,117,VALID,0,
2009-11-04, 03:21:04,VALID,999.841,VALID,0,VALID,91.2731,VALID,0,VALID,21.8675,VALID,101,VALID,0.719141,
2009-11-04, 03:22:04,VALID,999.843,VALID,0,VALID,90.7849,VALID,0,VALID,21.8692,VALID,101,VALID,1.12773,
2009-11-04, 03:23:04,VALID,999.806,VALID,0,VALID,90.8764,VALID,0,VALID,21.9082,VALID,112,VALID,0.948047,
2009-11-04, 03:24:04,VALID,999.832,VALID,0,VALID,90.472,VALID,0,VALID,21.9065,VALID,110,VALID,0.934766,
2009-11-04, 03:25:04,VALID,999.832,VALID,0,VALID,90.0753,VALID,0,VALID,21.9082,VALID,105,VALID,0.797656,
2009-11-04, 03:26:04,VALID,999.858,VALID,0,VALID,89.9074,VALID,0,VALID,21.848,VALID,104,VALID,0.507813,
2009-11-04, 03:27:04,VALID,999.856,VALID,0,VALID,90.5331,VALID,0,VALID,21.848,VALID,104,VALID,0.557422,
2009-11-04, 03:28:04,VALID,999.858,VALID,0,VALID,90.6857,VALID,0,VALID,21.8675,VALID,104,VALID,0.462891,
2009-11-04, 03:29:04,VALID,999.865,VALID,0,VALID,90.1668,VALID,0,VALID,21.8285,VALID,66,VALID,0.517578,
2009-11-04, 03:30:04,VALID,999.874,VALID,0,VALID,89.9074,VALID,0,VALID,21.7505,VALID,50,VALID,0.558594,
2009-11-04, 03:31:04,VALID,999.848,VALID,0,VALID,89.938,VALID,0,VALID,21.6725,VALID,49,VALID,0.512109,
2009-11-04, 03:32:04,VALID,999.825,VALID,0,VALID,90.5712,VALID,0,VALID,21.6351,VALID,49,VALID,0.566406,
2009-11-04, 03:33:04,VALID,999.82,VALID,0,VALID,90.8993,VALID,0,VALID,21.5945,VALID,49,VALID,0.679297,
2009-11-04, 03:34:04,VALID,999.799,VALID,0,VALID,90.8306,VALID,0,VALID,21.5555,VALID,47,VALID,0.666406,
2009-11-04, 03:35:04,VALID,999.82,VALID,0,VALID,90.8688,VALID,0,VALID,21.536,VALID,44,VALID,0.705078,
2009-11-04, 03:36:04,VALID,999.846,VALID,0,VALID,91.2121,VALID,0,VALID,21.5181,VALID,44,VALID,0.795703,
2009-11-04, 03:37:04,VALID,999.818,VALID,0,VALID,91.1206,VALID,0,VALID,21.458,VALID,44,VALID,0.708984,
2009-11-04, 03:38:04,VALID,999.858,VALID,0,VALID,90.9146,VALID,0,VALID,21.419,VALID,44,VALID,0.309766,
2009-11-04, 03:39:04,VALID,999.873,VALID,0,VALID,91.0748,VALID,0,VALID,21.3605,VALID,44,VALID,0.5625,
2009-11-04, 03:40:04,VALID,999.866,VALID,0,VALID,90.9909,VALID,0,VALID,21.3215,VALID,43,VALID,0.75,
2009-11-04, 03:41:04,VALID,999.882,VALID,0,VALID,91.6546,VALID,0,VALID,21.302,VALID,43,VALID,0.869922,
2009-11-04, 03:42:04,VALID,999.871,VALID,0,VALID,92.1124,VALID,0,VALID,21.3621,VALID,43,VALID,0.794531,
2009-11-04, 03:43:04,VALID,999.849,VALID,0,VALID,92.204,VALID,0,VALID,21.38,VALID,43,VALID,0.467578,
2009-11-04, 03:44:04,VALID,999.833,VALID,0,VALID,91.9827,VALID,0,VALID,21.3816,VALID,43,VALID,0.364062,
2009-11-04, 03:45:04,VALID,999.85,VALID,0,VALID,92.1277,VALID,0,VALID,21.4011,VALID,43,VALID,0.451562,
2009-11-04, 03:46:04,VALID,999.846,VALID,0,VALID,91.8377,VALID,0,VALID,21.341,VALID,43,VALID,0.265234,
2009-11-04, 03:47:04,VALID,999.869,VALID,0,VALID,91.7538,VALID,0,VALID,21.2825,VALID,43,VALID,0.301172,
2009-11-04, 03:48:04,VALID,999.873,VALID,0,VALID,91.6394,VALID,0,VALID,21.263,VALID,43,VALID,0.213281,
2009-11-04, 03:49:04,VALID,999.833,VALID,0,VALID,91.7004,VALID,0,VALID,21.2045,VALID,46,VALID,0.165625,